This is the latest recevied weather packets stored in our database for station/object KC0SIQ-13. If no packets are shown the sender has not sent any weather packets the latest 10 day(s).
| Time | Temp. | Humidity | Pressure | Rain* | Wind** | Luminosity | Snow |
|---|---|---|---|---|---|---|---|
| 1778020601 | 0.56° C | 99% | 1011.8 hPa | 0 mm | - | 23 W/m² | - |
| 1778020296 | 0.56° C | 99% | 1011.9 hPa | 0 mm | - | 24 W/m² | - |
| 1778019993 | 0.56° C | 99% | 1011.7 hPa | 1.27 mm | - | 26 W/m² | - |
| 1778019689 | 0.56° C | 99% | 1011.7 hPa | 1.27 mm | - | 34 W/m² | - |
| 1778019386 | 0.56° C | 99% | 1011.8 hPa | 0 mm | - | 41 W/m² | - |
| 1778019083 | 0.56° C | 99% | 1011.4 hPa | 0 mm | - | 50 W/m² | - |
| 1778018780 | 0.56° C | 99% | 1011.6 hPa | 0 mm | - | 39 W/m² | - |
| 1778018478 | 1.11° C | 99% | 1011.8 hPa | 1.78 mm | - | 45 W/m² | - |
| 1778018175 | 0.56° C | 99% | 1011.6 hPa | 1.78 mm | - | 57 W/m² | - |
| 1778017873 | 0.56° C | 99% | 1011.9 hPa | 1.27 mm | - | 55 W/m² | - |
| 1778017571 | 1.11° C | 99% | 1011.7 hPa | 1.27 mm | - | 62 W/m² | - |
| 1778017268 | 0.56° C | 99% | 1011.8 hPa | 1.78 mm | - | 68 W/m² | - |
| 1778016966 | 1.11° C | 99% | 1011.7 hPa | 3.05 mm | - | 81 W/m² | - |
| 1778016662 | 1.11° C | 99% | 1011.8 hPa | 3.05 mm | - | 108 W/m² | - |
| 1778016358 | 1.11° C | 99% | 1011.4 hPa | 3.56 mm | - | 124 W/m² | - |
| 1778016056 | 1.11° C | 99% | 1011.6 hPa | 3.05 mm | - | 119 W/m² | - |
| 1778015752 | 1.11° C | 99% | 1011.8 hPa | 3.05 mm | - | 127 W/m² | - |
| 1778015449 | 0.56° C | 99% | 1011.7 hPa | 3.05 mm | - | 118 W/m² | - |
| 1778015146 | 0.56° C | 99% | 1011.8 hPa | 1.27 mm | - | 95 W/m² | - |
| 1778014843 | 0.56° C | 99% | 1011.7 hPa | 0 mm | - | 95 W/m² | - |
| 1778014541 | 0.56° C | 99% | 1011.9 hPa | 0 mm | - | 81 W/m² | - |
| 1778014238 | 0.56° C | 99% | 1011.8 hPa | 1.78 mm | - | 90 W/m² | - |
| 1778013936 | 0.56° C | 99% | 1011.9 hPa | 1.78 mm | - | 75 W/m² | - |
| 1778013633 | 0.56° C | 99% | 1012 hPa | 0 mm | - | 77 W/m² | - |
| 1778013329 | 0.56° C | 99% | 1011.9 hPa | 1.27 mm | - | 81 W/m² | - |
* Rain latest hour (hover to see other rain measurements)
** Current wind speed in m/s (hover to see current wind gust speed)